Location: maison
(44.0032°N, 4.9445°E)
Time: 06:49:33
(UTC+01:00)

ISS - Visible Passes

Search period start: 29 October 2020 00:00
Search period end: 08 November 2020 00:00
Orbit: 417 x 420 km, 51.6° (Epoch: 28 October)

Date Brightness Start Highest point End Pass type
(mag) Time Alt. Az. Time Alt. Az. Time Alt. Az.
29 Oct -0.4 04:23:27 12° ENE 04:23:27 12° ENE 04:23:45 10° ENE visible
29 Oct -2.5 05:56:24 23° NW 05:57:27 28° NNW 06:00:25 10° NE visible
30 Oct -2.0 05:10:41 26° NNE 05:10:41 26° NNE 05:12:40 10° NE visible
31 Oct -0.3 04:24:55 10° NE 04:24:55 10° NE 04:24:56 10° NE visible
31 Oct -2.0 05:57:52 18° NW 05:59:01 22° N 06:01:44 10° NE visible
01 Nov -1.7 05:12:04 21° NNE 05:12:04 21° NNE 05:13:52 10° NE visible
01 Nov -2.1 06:45:45 10° NW 06:48:35 24° N 06:51:25 10° ENE visible
02 Nov -1.9 05:59:11 17° NNW 06:00:37 22° N 06:03:21 10° ENE visible
03 Nov -1.6 05:13:22 20° NNE 05:13:22 20° NNE 05:15:19 10° NE visible
03 Nov -2.6 06:46:56 10° NW 06:50:05 35° NNE 06:53:13 10° E visible
04 Nov -2.3 06:00:29 19° NNW 06:02:09 28° NNE 06:05:08 10° ENE visible
05 Nov -1.8 05:14:41 23° NNE 05:14:41 23° NNE 05:17:01 10° ENE visible
05 Nov -3.6 06:48:01 10° NW 06:51:24 72° NNE 06:54:45 10° ESE visible
06 Nov -0.2 04:28:55 10° ENE 04:28:55 10° ENE 04:28:55 10° ENE visible
06 Nov -3.1 06:01:52 24° NW 06:03:33 48° NNE 06:06:49 10° ESE visible
07 Nov -2.3 05:16:08 33° NE 05:16:08 33° NE 05:18:47 10° E visible
07 Nov -3.2 06:49:17 10° WNW 06:52:30 44° SW 06:55:43 10° SE visible
